^^
Mint Hill Weather Station Historical Data
 
Daily Summary for April 28, 2015 Units:  English    Metric   Both
« Previous Day
Next Day »
Daily Weekly Monthly Yearly Custom
  Current: High: Low: Average:
Temperature: 43.3 °F 50.3 °F 42.0 °F 44.5 °F
Dew Point: 40.8 °F 41.5 °F 39.0 °F 39.9 °F
Humidity: 91% 91% 68% 84%
Wind Speed: 0.0mph 0.0mph 0.0mph 0mph
Wind Gust: 0.0mph 0.0mph - -
WindCalm - - North
Pressure: 29.97 in 29.97 in 29.92 in -
Precipitation: 0.00 in      
Historical Graphs
 
 
Tabular Data for April 28, 2015
Time Temperature Dew Point Pressure Wind Wind Speed Wind Gust Humidity Rainfall Rate (Hourly) solar Conditions
00:04 50.3 °F 40.1 °F 29.92 in Calm     68% 0.00 in 0.0 W/m2 SCT
00:09 50.1 °F 40.3 °F 29.92 in Calm     69% 0.00 in 0.0 W/m2 SCT
00:14 50.0 °F 40.2 °F 29.92 in Calm     69% 0.00 in 0.0 W/m2 SCT
00:19 49.8 °F 40.4 °F 29.92 in Calm     70% 0.00 in 0.0 W/m2 SCT
00:24 49.6 °F 40.2 °F 29.92 in Calm     70% 0.00 in 0.0 W/m2 SCT
00:29 49.5 °F 40.5 °F 29.92 in Calm     71% 0.00 in 0.0 W/m2 SCT
00:34 49.4 °F 40.4 °F 29.92 in Calm     71% 0.00 in 0.0 W/m2 SCT
00:39 49.2 °F 40.9 °F 29.92 in Calm     73% 0.00 in 0.0 W/m2 SCT
00:44 49.1 °F 40.8 °F 29.92 in Calm     73% 0.00 in 0.0 W/m2 SCT
00:49 48.9 °F 41.3 °F 29.93 in Calm     75% 0.00 in 0.0 W/m2 SCT
00:59 48.6 °F 40.7 °F 29.92 in Calm     74% 0.00 in 0.0 W/m2 SCT
01:04 48.4 °F 40.5 °F 29.92 in Calm     74% 0.00 in 0.0 W/m2 BKN
01:09 48.3 °F 40.7 °F 29.92 in Calm     75% 0.00 in 0.0 W/m2 BKN
01:14 48.1 °F 40.5 °F 29.92 in Calm     75% 0.00 in 0.0 W/m2 BKN
01:19 47.9 °F 40.7 °F 29.92 in Calm     76% 0.00 in 0.0 W/m2 BKN
01:24 47.8 °F 40.9 °F 29.92 in Calm     77% 0.00 in 0.0 W/m2 BKN
01:29 47.6 °F 40.7 °F 29.92 in Calm     77% 0.00 in 0.0 W/m2 BKN
01:34 47.4 °F 40.6 °F 29.92 in Calm     77% 0.00 in 0.0 W/m2 BKN
01:39 47.2 °F 41.0 °F 29.93 in Calm     79% 0.00 in 0.0 W/m2 BKN
01:44 46.7 °F 41.5 °F 29.93 in Calm     82% 0.00 in 0.0 W/m2 BKN
01:49 46.4 °F 41.2 °F 29.93 in Calm     82% 0.00 in 0.0 W/m2 BKN
01:54 46.3 °F 41.1 °F 29.93 in Calm     82% 0.00 in 0.0 W/m2 BKN
01:59 46.3 °F 40.8 °F 29.92 in Calm     81% 0.00 in 0.0 W/m2 BKN
02:04 46.1 °F 40.9 °F 29.92 in Calm     82% 0.00 in 0.0 W/m2 CLR
02:09 46.0 °F 40.5 °F 29.92 in Calm     81% 0.00 in 0.0 W/m2 CLR
02:14 45.8 °F 40.3 °F 29.92 in Calm     81% 0.00 in 0.0 W/m2 CLR
02:19 45.7 °F 40.2 °F 29.92 in Calm     81% 0.00 in 0.0 W/m2 CLR
02:24 45.5 °F 40.0 °F 29.92 in Calm     81% 0.00 in 0.0 W/m2 CLR
02:29 45.4 °F 40.2 °F 29.92 in Calm     82% 0.00 in 0.0 W/m2 CLR
02:34 45.3 °F 40.1 °F 29.92 in Calm     82% 0.00 in 0.0 W/m2 CLR
02:39 45.2 °F 40.0 °F 29.92 in Calm     82% 0.00 in 0.0 W/m2 CLR
02:44 45.1 °F 39.9 °F 29.92 in Calm     82% 0.00 in 0.0 W/m2 CLR
02:54 44.8 °F 39.9 °F 29.92 in Calm     83% 0.00 in 0.0 W/m2 CLR
02:59 44.6 °F 39.8 °F 29.92 in Calm     83% 0.00 in 0.0 W/m2 CLR
03:04 44.5 °F 40.0 °F 29.92 in Calm     84% 0.00 in 0.0 W/m2 FEW
03:09 44.3 °F 39.8 °F 29.92 in Calm     84% 0.00 in 0.0 W/m2 FEW
03:14 44.2 °F 40.0 °F 29.92 in Calm     85% 0.00 in 0.0 W/m2 FEW
03:19 44.1 °F 39.9 °F 29.92 in Calm     85% 0.00 in 0.0 W/m2 FEW
03:24 44.1 °F 39.9 °F 29.92 in Calm     85% 0.00 in 0.0 W/m2 FEW
03:29 44.0 °F 39.8 °F 29.92 in Calm     85% 0.00 in 0.0 W/m2 FEW
03:34 43.9 °F 40.0 °F 29.93 in Calm     86% 0.00 in 0.0 W/m2 FEW
03:41 43.8 °F 39.9 °F 29.92 in Calm     86% 0.00 in 0.0 W/m2 FEW
03:46 43.7 °F 39.8 °F 29.92 in Calm     86% 0.00 in 0.0 W/m2 FEW
03:51 43.6 °F 39.7 °F 29.92 in Calm     86% 0.00 in 0.0 W/m2 FEW
03:56 43.5 °F 39.9 °F 29.92 in Calm     87% 0.00 in 0.0 W/m2 FEW
04:01 43.4 °F 39.8 °F 29.93 in Calm     87% 0.00 in 0.0 W/m2 FEW
04:06 43.4 °F 39.8 °F 29.93 in Calm     87% 0.00 in 0.0 W/m2 CLR
04:11 43.3 °F 39.7 °F 29.93 in Calm     87% 0.00 in 0.0 W/m2 CLR
04:16 43.2 °F 39.6 °F 29.93 in Calm     87% 0.00 in 0.0 W/m2 CLR
04:21 43.2 °F 39.6 °F 29.93 in Calm     87% 0.00 in 0.0 W/m2 CLR
04:26 43.1 °F 39.5 °F 29.92 in Calm     87% 0.00 in 0.0 W/m2 CLR
04:31 43.1 °F 39.5 °F 29.93 in Calm     87% 0.00 in 0.0 W/m2 CLR
04:36 43.0 °F 39.4 °F 29.93 in Calm     87% 0.00 in 0.0 W/m2 CLR
04:41 43.0 °F 39.4 °F 29.94 in Calm     87% 0.00 in 0.0 W/m2 CLR
04:46 42.9 °F 39.3 °F 29.94 in Calm     87% 0.00 in 0.0 W/m2 CLR
04:51 42.8 °F 39.2 °F 29.94 in Calm     87% 0.00 in 0.0 W/m2 CLR
04:56 42.7 °F 39.4 °F 29.93 in Calm     88% 0.00 in 0.0 W/m2 CLR
05:01 42.7 °F 39.4 °F 29.93 in Calm     88% 0.00 in 0.0 W/m2 CLR
05:06 42.6 °F 39.3 °F 29.93 in Calm     88% 0.00 in 0.0 W/m2 SCT
05:11 42.5 °F 39.2 °F 29.94 in Calm     88% 0.00 in 0.0 W/m2 SCT
05:16 42.5 °F 39.2 °F 29.94 in Calm     88% 0.00 in 0.0 W/m2 SCT
05:21 42.4 °F 39.1 °F 29.94 in Calm     88% 0.00 in 0.0 W/m2 SCT
05:26 42.4 °F 39.1 °F 29.94 in Calm     88% 0.00 in 0.0 W/m2 SCT
05:31 42.3 °F 39.0 °F 29.95 in Calm     88% 0.00 in 0.0 W/m2 SCT
05:36 42.3 °F 39.3 °F 29.95 in Calm     89% 0.00 in 0.0 W/m2 SCT
05:41 42.2 °F 39.2 °F 29.94 in Calm     89% 0.00 in 0.0 W/m2 SCT
05:46 42.2 °F 39.2 °F 29.94 in Calm     89% 0.00 in 0.0 W/m2 SCT
05:51 42.2 °F 39.5 °F 29.94 in Calm     90% 0.00 in 0.0 W/m2 SCT
05:56 42.2 °F 39.5 °F 29.94 in Calm     90% 0.00 in 0.0 W/m2 SCT
06:01 42.1 °F 39.1 °F 29.94 in Calm     89% 0.00 in 0.0 W/m2 SCT
06:06 42.1 °F 39.1 °F 29.94 in Calm     89% 0.00 in 0.0 W/m2 CLR
06:11 42.0 °F 39.0 °F 29.95 in Calm     89% 0.00 in 0.0 W/m2 CLR
06:16 42.0 °F 39.0 °F 29.95 in Calm     89% 0.00 in 0.0 W/m2 CLR
06:21 42.0 °F 39.0 °F 29.95 in Calm     89% 0.00 in 0.0 W/m2 CLR
06:26 42.0 °F 39.0 °F 29.95 in Calm     89% 0.00 in 0.0 W/m2 CLR
06:31 42.0 °F 39.0 °F 29.95 in Calm     89% 0.00 in 6.0 W/m2 CLR
06:36 42.0 °F 39.0 °F 29.95 in Calm     89% 0.00 in 0.0 W/m2 CLR
06:41 42.0 °F 39.3 °F 29.95 in Calm     90% 0.00 in 8.4 W/m2 CLR
06:46 42.0 °F 39.3 °F 29.95 in Calm     90% 0.00 in 10.8 W/m2 CLR
06:51 42.0 °F 39.3 °F 29.95 in Calm     90% 0.00 in 14.4 W/m2 CLR
06:56 42.0 °F 39.3 °F 29.96 in Calm     90% 0.00 in 19.2 W/m2 CLR
07:01 42.1 °F 39.4 °F 29.96 in Calm     90% 0.00 in 22.8 W/m2 CLR
07:06 42.1 °F 39.4 °F 29.96 in Calm     90% 0.00 in 30.0 W/m2 CLR
07:11 42.2 °F 39.5 °F 29.96 in Calm     90% 0.00 in 33.6 W/m2 CLR
07:16 42.2 °F 39.5 °F 29.96 in Calm     90% 0.00 in 36.0 W/m2 CLR
07:22 42.4 °F 39.7 °F 29.96 in Calm     90% 0.00 in 39.6 W/m2 CLR
07:27 42.5 °F 40.1 °F 29.97 in Calm     91% 0.00 in 44.4 W/m2 CLR
07:32 42.7 °F 40.3 °F 29.97 in Calm     91% 0.00 in 58.8 W/m2 CLR
07:37 43.0 °F 40.6 °F 29.97 in Calm     91% 0.00 in 61.2 W/m2 CLR
07:42 43.1 °F 40.7 °F 29.97 in Calm     91% 0.00 in 58.8 W/m2 CLR
07:47 43.3 °F 40.8 °F 29.97 in Calm     91% 0.00 in 61.2 W/m2 CLR
Mint Hill, North Carolina, USA
Compliments of Weather Underground